WESTFORD NEEDLES, 3255

Orbit data source: Space-Track

WESTFORD NEEDLES, 3255 is space debris in LEO originally from a launch on Thu, 09 May 1963 UTC launched from the Air Force Western Test Range (AFWTR). Debris objects in space refer to the collection of defunct objects orbiting the Earth. Examples of debris include non-operational satellites, rocket bodies, and fragments generated from explosions, collisions, or faulty payload assembly.

Loading next visibility...
Identifier
3255, 1963-014BV
Orbit
LEO
Country
Flag of USUS
Related business
Manufacturer
Unknown
Mission
Spacecraft
Bus & Motor
Unknown
Mass
Unknown
Launch date (UTC)
1963-05-09 (63 years ago)
Launch vehicle
Unknown
Launch site
Air Force Western Test Range (AFWTR)
Object type
Payload
Rocket body
Debris
Shape & HBR
Unknown shape, 1.1 m
Radar Cross Section
Medium (>0.1 m² and <1 m²)

Expand to show TLE details & history
Last TLE update: 8 hours ago

TLE from 8 hours ago
0 WESTFORD NEEDLES
1 03255U 63014BV  26101.16704029  .00000064  00000-0  27968-1 0  9991
2 03255  87.3654 175.5936 0134880 254.7838 103.8068  8.66791567375610
Epoch: 2026-04-11T04:00Z
TLE epoch observation values (Epoch: 2026-04-11T04:00:32.281Z)
Latitude
-0.00006°
Longitude
-83.93115°
Altitude
3,668.556 km
Speed
6.289 km/s
True Right ascension
11h 42m 22s
True Declination
0° 00' 00"
Sunlit
Object was in full shadow at epoch
Visualization orbit readout
Latitude
Unknown
Longitude
Unknown
Altitude
Unknown
Speed
Unknown
Apparent Right ascension
Unknown
Apparent Declination
Unknown
Sunlit
N/A
Visualization observer readout
Local Sidereal Time
17:57:55
Azimuth
Unknown
Elevation
Unknown
Doppler factor
Unknown
Orbital elements
Apogee altitude
3,765.244 km
Perigee altitude
3,495.258 km
Semi-major axis
10,008.388 km
Eccentricity
0.01349
Inclination
87.3654°
RAAN
175.5936°
Arg. of periapsis
254.7838°
True anomaly
105.30157°
Mean anomaly
103.8068°
Eccentric anomaly
104.5548°
Mean motion
2.16769 °/min
Orbital period
166.08 mins
BSTAR
0.027968
Loading maneuver chart data...
Computing Atmospheric mass density...

Documentation

Showing up to 5 results
|